Location: Waco, TX
(31.5480°N, 97.1670°W)
Time: 19:32:39

ISS - Pass Details

Date: 12 March 2018
Orbit: 403 x 406 km, 51.6° (Epoch: 22 March)

Event Time Altitude Azimuth Distance (km) Brightness Sun altitude
Rises 10:24:50 0° 297° (WNW) 2,318 -0.5 32.4°
Reaches altitude 10° 10:27:24 10° 276° (W) 1,454 -1.4 32.9°
Maximum altitude 10:29:36 17° 233° (SW) 1,102 -1.7 33.3°
Drops below altitude 10° 10:31:48 10° 190° (S) 1,447 -0.7 33.7°
Sets 10:34:21 0° 169° (S) 2,300 0.5 34.2°
